| time (UTC) | temp F | wind direction | speed knots | gust knots | rain 1hr in | rain 24hr in | rain mn in | humidity % | barometer mb |
| 20260507063011 | 52 | 195 | 0.9 | 0.0 | 0.00 | 0.00 | 0.00 | 63 | 1020.1 |
| 20260507061503 | 52 | 196 | 0.0 | 0.0 | 0.00 | 0.00 | 0.00 | 62 | 1020.1 |
| 20260507060059 | 52 | 196 | 0.0 | 0.0 | 0.00 | 0.00 | 0.00 | 61 | 1020.1 |
| 20260507054637 | 53 | 196 | 0.9 | 0.0 | 0.00 | 0.00 | 0.00 | 58 | 1020.1 |
| 20260507053053 | 53 | 163 | 0.0 | 0.0 | 0.00 | 0.00 | 0.00 | 52 | 1020.2 |
| 20260507051546 | 53 | 162 | 0.0 | 0.0 | 0.00 | 0.00 | 0.00 | 49 | 1020.1 |
| 20260507050042 | 53 | 161 | 0.0 | 0.0 | 0.00 | 0.00 | 0.00 | 50 | 1020.4 |
| 20260507044544 | 54 | 157 | 0.0 | 0.0 | 0.00 | 0.00 | 0.00 | 51 | 1020.4 |
| 20260507043032 | 54 | 98 | 0.0 | 0.0 | 0.00 | 0.00 | 0.00 | 52 | 1020.3 |
| 20260507041528 | 54 | 92 | 0.0 | 0.0 | 0.00 | 0.00 | 0.00 | 53 | 1020.3 |
| 20260507040026 | 54 | 162 | 0.0 | 0.0 | 0.00 | 0.00 | 0.00 | 53 | 1020.1 |
| 20260507034520 | 54 | 162 | 0.0 | 0.0 | 0.00 | 0.00 | 0.00 | 56 | 1020.0 |
| 20260507033020 | 54 | 162 | 0.0 | 0.0 | 0.00 | 0.00 | 0.00 | 59 | 1019.7 |
| 20260507031511 | 54 | 196 | 0.9 | 0.0 | 0.00 | 0.00 | 0.00 | 57 | 1019.7 |
| 20260507030007 | 55 | 192 | 0.9 | 0.0 | 0.00 | 0.00 | 0.00 | 58 | 1019.5 |
| 20260507024503 | 55 | 208 | 0.9 | 0.0 | 0.00 | 0.00 | 0.00 | 59 | 1019.5 |
| 20260507023105 | 55 | 221 | 1.7 | 0.0 | 0.00 | 0.00 | 0.00 | 61 | 1019.2 |
| 20260507021553 | 56 | 206 | 0.9 | 0.0 | 0.00 | 0.00 | 0.00 | 62 | 1019.3 |
| 20260507020054 | 56 | 195 | 0.9 | 0.0 | 0.00 | 0.00 | 0.00 | 64 | 1019.3 |
| 20260507014551 | 57 | 318 | 0.0 | 0.0 | 0.00 | 0.00 | 0.00 | 64 | 1019.4 |
| 20260507013044 | 57 | 311 | 0.9 | 0.0 | 0.00 | 0.00 | 0.00 | 65 | 1019.2 |
| 20260507011535 | 58 | 179 | 0.0 | 0.0 | 0.00 | 0.00 | 0.00 | 65 | 1019.4 |
| 20260507010034 | 58 | 201 | 2.6 | 0.0 | 0.00 | 0.00 | 0.00 | 66 | 1019.2 |
| 20260507004527 | 59 | 329 | 0.9 | 0.0 | 0.00 | 0.00 | 0.00 | 65 | 1019.4 |
| 20260507003022 | 59 | 192 | 1.7 | 0.0 | 0.00 | 0.00 | 0.00 | 65 | 1019.4 |
| 20260507001524 | 59 | 165 | 0.9 | 0.0 | 0.00 | 0.00 | 0.00 | 66 | 1019.4 |
| 20260507000016 | 59 | 320 | 0.9 | 0.0 | 0.00 | 0.00 | 0.00 | 66 | 1019.5 |
| 20260506234513 | 60 | 172 | 0.9 | 0.0 | 0.00 | 0.00 | 0.00 | 66 | 1019.4 |
| 20260506233005 | 61 | 211 | 2.6 | 0.0 | 0.00 | 0.00 | 0.00 | 65 | 1019.4 |
| 20260506231501 | 62 | 226 | 1.7 | 0.0 | 0.00 | 0.00 | 0.00 | 65 | 1019.4 |
| 20260506230056 | 61 | 234 | 1.7 | 0.0 | 0.00 | 0.00 | 0.00 | 64 | 1019.1 |
| 20260506224552 | 61 | 187 | 3.5 | 0.0 | 0.00 | 0.00 | 0.00 | 65 | 1019.3 |
| 20260506223048 | 62 | 351 | 2.6 | 0.0 | 0.00 | 0.00 | 0.00 | 64 | 1019.5 |
| 20260506221543 | 62 | 17 | 0.9 | 0.0 | 0.00 | 0.00 | 0.00 | 64 | 1019.5 |
| 20260506220039 | 61 | 192 | 0.9 | 0.0 | 0.00 | 0.00 | 0.00 | 65 | 1019.6 |
| 20260506214535 | 61 | 320 | 1.7 | 0.0 | 0.00 | 0.00 | 0.00 | 65 | 1019.6 |
| 20260506213031 | 60 | 215 | 3.5 | 0.0 | 0.00 | 0.00 | 0.00 | 64 | 1019.5 |
| 20260506211525 | 59 | 246 | 0.9 | 0.0 | 0.00 | 0.00 | 0.00 | 64 | 1019.7 |
| 20260506210021 | 58 | 174 | 1.7 | 0.0 | 0.00 | 0.00 | 0.00 | 64 | 1019.7 |
| 20260506204523 | 58 | 223 | 1.7 | 0.0 | 0.00 | 0.00 | 0.00 | 62 | 1019.6 |
| 20260506203015 | 57 | 213 | 0.9 | 0.0 | 0.00 | 0.00 | 0.00 | 61 | 1019.8 |
| 20260506201508 | 56 | 175 | 1.7 | 0.0 | 0.00 | 0.00 | 0.00 | 57 | 1019.5 |
| 20260506200004 | 56 | 153 | 0.0 | 0.0 | 0.00 | 0.00 | 0.00 | 49 | 1019.5 |
| 20260506194634 | 56 | 189 | 0.9 | 0.0 | 0.00 | 0.00 | 0.00 | 40 | 1019.7 |
| 20260506193104 | 55 | 209 | 0.9 | 0.0 | 0.00 | 0.00 | 0.00 | 29 | 1019.5 |
| 20260506191551 | 55 | 306 | 1.7 | 0.0 | 0.00 | 0.00 | 0.00 | 23 | 1019.6 |
| 20260506190046 | 54 | 115 | 0.0 | 0.0 | 0.00 | 0.00 | 0.00 | 12 | 1019.6 |
| 20260506184542 | 54 | 259 | 0.9 | 0.0 | 0.00 | 0.00 | 0.00 | 6 | 1019.7 |
| 20260506183039 | 54 | 253 | 0.0 | 0.0 | 0.00 | 0.00 | 0.00 | 100 | 1019.5 |
| 20260506181533 | 54 | 185 | 0.9 | 0.0 | 0.00 | 0.00 | 0.00 | 100 | 1019.2 |
| 20260506180034 | 54 | 97 | 0.0 | 0.0 | 0.00 | 0.00 | 0.00 | 100 | 1019.6 |
| 20260506174525 | 53 | 190 | 0.9 | 0.0 | 0.00 | 0.00 | 0.00 | 100 | 1019.2 |
| 20260506173020 | 53 | 198 | 0.0 | 0.0 | 0.00 | 0.00 | 0.00 | 100 | 1019.3 |
| 20260506171517 | 53 | 178 | 0.0 | 0.0 | 0.00 | 0.00 | 0.00 | 100 | 1019.2 |
| 20260506170011 | 53 | 176 | 0.0 | 0.0 | 0.00 | 0.00 | 0.00 | 100 | 1019.2 |
| 20260506164508 | 53 | 173 | 0.0 | 0.0 | 0.00 | 0.00 | 0.00 | 100 | 1019.3 |
| 20260506163004 | 53 | 221 | 0.0 | 0.0 | 0.00 | 0.00 | 0.00 | 100 | 1019.2 |
| 20260506161616 | 52 | 173 | 0.9 | 0.0 | 0.00 | 0.00 | 0.00 | 100 | 1019.0 |
| 20260506160054 | 52 | 165 | 0.0 | 0.0 | 0.00 | 0.00 | 0.00 | 100 | 1018.9 |
| 20260506154607 | 52 | 169 | 0.0 | 0.0 | 0.00 | 0.00 | 0.00 | 100 | 1018.9 |
| 20260506153054 | 52 | 65 | 0.0 | 0.0 | 0.00 | 0.00 | 0.00 | 100 | 1018.7 |
| 20260506151541 | 52 | 60 | 0.0 | 0.0 | 0.00 | 0.00 | 0.00 | 100 | 1018.8 |
| 20260506150037 | 51 | 60 | 0.0 | 0.0 | 0.00 | 0.00 | 0.00 | 100 | 1018.7 |
| 20260506144532 | 51 | 58 | 0.0 | 0.0 | 0.00 | 0.00 | 0.00 | 100 | 1018.8 |
| 20260506143035 | 51 | 190 | 0.9 | 0.0 | 0.00 | 0.00 | 0.00 | 100 | 1018.4 |
| 20260506141523 | 51 | 83 | 0.0 | 0.0 | 0.00 | 0.00 | 0.00 | 100 | 1018.5 |
| 20260506140019 | 51 | 124 | 0.0 | 0.0 | 0.00 | 0.00 | 0.00 | 100 | 1018.7 |
| 20260506134515 | 51 | 163 | 0.0 | 0.0 | 0.00 | 0.00 | 0.00 | 100 | 1018.7 |
| 20260506133011 | 52 | 164 | 0.0 | 0.0 | 0.00 | 0.00 | 0.00 | 100 | 1018.4 |
| 20260506131508 | 52 | 202 | 0.0 | 0.0 | 0.00 | 0.00 | 0.00 | 100 | 1018.3 |
| 20260506130002 | 52 | 263 | 0.0 | 0.0 | 0.00 | 0.00 | 0.00 | 100 | 1017.9 |
| 20260506124558 | 52 | 263 | 0.0 | 0.0 | 0.00 | 0.00 | 0.00 | 100 | 1018.0 |
| 20260506123053 | 52 | 344 | 0.0 | 0.0 | 0.00 | 0.00 | 0.00 | 100 | 1017.9 |
| 20260506121548 | 52 | 344 | 0.0 | 0.0 | 0.00 | 0.00 | 0.00 | 100 | 1017.9 |
| 20260506120055 | 52 | 344 | 0.0 | 0.0 | 0.00 | 0.00 | 0.00 | 100 | 1017.7 |
| 20260506114546 | 52 | 350 | 0.0 | 0.0 | 0.00 | 0.00 | 0.00 | 100 | 1017.5 |
| 20260506113036 | 52 | 350 | 0.0 | 0.0 | 0.00 | 0.00 | 0.00 | 100 | 1017.6 |
| 20260506111537 | 52 | 350 | 0.0 | 0.0 | 0.00 | 0.00 | 0.00 | 100 | 1017.6 |
| 20260506110030 | 52 | 338 | 0.0 | 0.0 | 0.00 | 0.00 | 0.00 | 4 | 1017.6 |
| 20260506104522 | 53 | 246 | 0.0 | 0.0 | 0.00 | 0.00 | 0.00 | 6 | 1017.4 |
| 20260506103018 | 53 | 196 | 0.0 | 0.0 | 0.00 | 0.00 | 0.00 | 6 | 1017.3 |
| 20260506101514 | 53 | 196 | 0.0 | 0.0 | 0.00 | 0.00 | 0.00 | 4 | 1017.1 |
| 20260506100009 | 53 | 197 | 0.0 | 0.0 | 0.00 | 0.00 | 0.00 | 3 | 1017.0 |
| 20260506094506 | 53 | 196 | 0.0 | 0.0 | 0.00 | 0.00 | 0.00 | 1 | 1016.8 |
| 20260506093002 | 53 | 201 | 0.0 | 0.0 | 0.00 | 0.00 | 0.00 | 100 | 1016.7 |
| 20260506091556 | 53 | 197 | 0.0 | 0.0 | 0.00 | 0.00 | 0.00 | 100 | 1016.9 |
| 20260506090053 | 52 | 197 | 0.0 | 0.0 | 0.00 | 0.00 | 0.00 | 100 | 1016.8 |
| 20260506084548 | 52 | 197 | 0.0 | 0.0 | 0.00 | 0.00 | 0.00 | 100 | 1016.6 |
| 20260506083043 | 51 | 197 | 0.0 | 0.0 | 0.00 | 0.00 | 0.00 | 100 | 1016.4 |
| 20260506081539 | 51 | 197 | 0.0 | 0.0 | 0.00 | 0.00 | 0.00 | 100 | 1016.3 |
| 20260506073026 | 53 | 197 | 0.0 | 0.0 | 0.00 | 0.00 | 0.00 | 4 | 1016.0 |
| 20260506071528 | 53 | 197 | 0.0 | 0.0 | 0.00 | 0.00 | 0.00 | 6 | 1015.9 |